Home   Weather   Tamworth   Past weeks

Flag for Australia Past Weather in Tamworth, New South Wales, Australia — Yesterday and Last 2 Weeks

52 °F


Feels Like: 48 °F
Forecast: 39 / 63 °F
Wind: 10 mph from Northwest

Location: Tamworth Airport

Current Time: Oct 22, 2016 at 7:55:29 PM

Latest Report: Oct 22, 2016 at 7:00 PM

Visibility: N/A

Pressure: 30.01 "Hg

Humidity: 77%

Dew Point: 45 °F

Location of TamworthLocation

Past Weather in Tamworth — Graph


Tamworth Temperature Yesterday

Maximum temperature yesterday: 81 °F (at 4:30 PM)
Minimum temperature yesterday: 46 °F (at 5:00 AM)
Average temperature yesterday: 67 °F

High & Low Weather Summary for the Past Weeks

High81 °F (Oct 9, 5:30 PM)94% (Oct 21, 6:00 AM)30.24 "Hg (Oct 21, 6:00 AM)
Low36 °F (Oct 12, 6:00 AM)24% (Oct 20, 2:00 PM)29.80 "Hg (Oct 10, 9:00 PM)
Average59 °F64%30.05 "Hg
* Reported Oct 7 6:00 PM — Oct 22 6:30 PM, Tamworth, Weather by CustomWeather, © 2016

Note: Actual official high and low records may vary slightly from our data, if they occured in-between our weather recording intervals... More about our weather records


Tamworth Weather History for the Previous 24 Hours

Scroll right to see more
Time TempWeatherWind HumidityBarometerVisibility
6:30 PM
Sat, Oct 22
55 °FBroken clouds.8 mph72%29.98 "HgN/A
6:00 PM55 °FOvercast.10 mph72%29.98 "HgN/A
5:00 PM52 °FOvercast.13 mph82%29.98 "HgN/A
4:00 PM54 °FMore clouds than sun.16 mph82%29.95 "Hg5 mi
3:00 PM55 °FBroken clouds.15 mph88%29.92 "HgN/A
2:30 PM59 °FCloudy.9 mph88%29.92 "HgN/A
2:00 PM59 °FMostly cloudy.5 mph88%29.95 "HgN/A
1:00 PM57 °FCloudy.9 mph88%29.95 "Hg1 mi
12:00 PM59 °FBroken clouds.7 mph88%29.95 "Hg3 mi
11:00 AM57 °FMore clouds than sun.15 mph88%29.92 "Hg3 mi
10:00 AM66 °FMostly cloudy.24 mph68%29.89 "HgN/A
9:00 AM64 °FMostly cloudy.18 mph78%29.92 "HgN/A
8:30 AM64 °FBroken clouds.20 mph78%29.92 "HgN/A
8:00 AM64 °FPartly sunny.22 mph78%29.92 "HgN/A
7:00 AM64 °FPartly sunny.17 mph78%29.92 "HgN/A
6:00 AM64 °FPassing clouds.16 mph78%29.89 "HgN/A
5:00 AM64 °FPassing clouds.15 mph78%29.89 "HgN/A
4:00 AM66 °FClear.17 mph73%29.89 "HgN/A
3:30 AM66 °FPassing clouds.18 mph73%29.89 "HgN/A
3:00 AM64 °FClear.8 mph83%29.89 "HgN/A
2:00 AM63 °FClear.6 mph88%29.92 "HgN/A
1:00 AM63 °FClear.No wind88%29.95 "HgN/A
12:00 AM63 °FPassing clouds.3 mph88%29.95 "HgN/A
11:00 PM
Fri, Oct 21
63 °FPartly cloudy.8 mph94%30.01 "Hg2 mi
10:30 PM63 °FOvercast.6 mph88%30.01 "Hg4 mi
10:00 PM63 °FOvercast.6 mph88%30.01 "HgN/A
9:00 PM64 °FMostly cloudy.12 mph88%30.01 "Hg5 mi
8:00 PM72 °FPassing clouds.6 mph61%29.95 "HgN/A
7:00 PM73 °FBroken clouds.10 mph53%29.95 "HgN/A
Weather by CustomWeather, © 2016

See weather overviewHow to use our weather pages